DWI5221 KSFB-MDPC

Flight info

Callsign DWI5221
Flight time 2h 17m
Altitude 37000
Route DDANY DCT MLB DCT FOMGU DCT KOUGH DCT ZQA Y441 JUELE UL463 PTA/N0385F190 W28 BEREL BEREL1W
Aircraft B38M/M-SDE1FGHILORVWXY/HB1

Departure

Time 2026-05-08 21:18
Airport Orlando Sanford International Airport (KSFB)

Arrival

Time 2026-05-08 23:36
Airport Punta Cana International Airport (MDPC)
Time Latitude Longitude Altitude Speed Heading
2026-05-08 20:37 28.77633 -81.24273 66 ft 0 kts 261°
2026-05-08 21:06 28.77634 -81.24263 58 ft 4 kts 261°
2026-05-08 21:07 28.77638 -81.24239 63 ft 4 kts 261°
2026-05-08 21:07 28.77641 -81.24212 61 ft 4 kts 283°
2026-05-08 21:07 28.77639 -81.24208 66 ft 2 kts 360°
2026-05-08 21:07 28.77655 -81.24209 62 ft 4 kts 356°
2026-05-08 21:08 28.77665 -81.24209 61 ft 1 kts 360°
2026-05-08 21:11 28.77679 -81.24208 59 ft 4 kts
2026-05-08 21:12 28.77724 -81.24207 61 ft 8 kts
2026-05-08 21:12 28.77763 -81.24241 61 ft 9 kts 278°
2026-05-08 21:12 28.77763 -81.24334 66 ft 14 kts 270°
2026-05-08 21:12 28.77763 -81.24457 66 ft 16 kts 269°
2026-05-08 21:13 28.77762 -81.24572 66 ft 13 kts 270°
2026-05-08 21:13 28.77763 -81.24668 66 ft 11 kts 270°
2026-05-08 21:13 28.77775 -81.24747 66 ft 10 kts 305°
2026-05-08 21:13 28.77822 -81.24806 60 ft 11 kts 313°
2026-05-08 21:14 28.77880 -81.24873 63 ft 13 kts 315°
2026-05-08 21:14 28.77935 -81.24939 66 ft 7 kts 313°
2026-05-08 21:14 28.77968 -81.24979 62 ft 7 kts 314°
2026-05-08 21:14 28.78002 -81.25019 62 ft 8 kts 314°
2026-05-08 21:15 28.78043 -81.25071 61 ft 10 kts 307°
2026-05-08 21:15 28.78057 -81.25146 66 ft 9 kts 270°
2026-05-08 21:15 28.78070 -81.25210 64 ft 9 kts 267°
2026-05-08 21:15 28.78063 -81.25283 64 ft 10 kts 269°
2026-05-08 21:16 28.78064 -81.25365 63 ft 11 kts 270°
2026-05-08 21:16 28.78063 -81.25462 59 ft 13 kts 269°
2026-05-08 21:16 28.78063 -81.25534 59 ft 6 kts 274°
2026-05-08 21:16 28.78079 -81.25574 62 ft 0 kts 315°
2026-05-08 21:17 28.78094 -81.25582 63 ft 7 kts 343°
2026-05-08 21:17 28.78155 -81.25582 64 ft 8 kts 15°
2026-05-08 21:17 28.78173 -81.25526 66 ft 9 kts 91°
2026-05-08 21:17 28.78172 -81.25236 67 ft 75 kts 89°
2026-05-08 21:18 28.78173 -81.24364 66 ft 144 kts 90°
2026-05-08 21:18 28.78175 -81.23010 244 ft 188 kts 95°
2026-05-08 21:18 28.78158 -81.21513 675 ft 187 kts 90°
2026-05-08 21:18 28.78170 -81.19984 1134 ft 203 kts 84°
2026-05-08 21:19 28.78223 -81.18340 1695 ft 211 kts 85°
2026-05-08 21:19 28.78243 -81.16657 2324 ft 219 kts 95°
2026-05-08 21:19 28.77734 -81.14877 2713 ft 254 kts 119°
2026-05-08 21:19 28.76557 -81.13336 3405 ft 268 kts 140°
2026-05-08 21:20 28.74979 -81.12126 4333 ft 271 kts 150°
2026-05-08 21:20 28.73398 -81.11126 5782 ft 254 kts 154°
2026-05-08 21:20 28.71807 -81.10074 6247 ft 282 kts 151°
2026-05-08 21:20 28.70100 -81.08822 6865 ft 294 kts 147°
2026-05-08 21:21 28.68420 -81.07436 7740 ft 300 kts 146°
2026-05-08 21:21 28.66749 -81.05999 8686 ft 301 kts 145°
2026-05-08 21:21 28.65077 -81.04635 9677 ft 295 kts 147°
2026-05-08 21:21 28.63402 -81.03262 10532 ft 299 kts 147°
2026-05-08 21:22 28.61704 -81.01843 11032 ft 314 kts 147°
2026-05-08 21:22 28.60518 -81.00839 11287 ft 326 kts 146°
2026-05-08 21:22 28.58033 -80.98711 11833 ft 346 kts 146°
2026-05-08 21:22 28.56078 -80.97031 12389 ft 353 kts 146°
2026-05-08 21:23 28.54111 -80.95348 13186 ft 354 kts 147°
2026-05-08 21:23 28.52132 -80.93656 13858 ft 358 kts 147°
2026-05-08 21:23 28.50121 -80.91937 14432 ft 362 kts 147°
2026-05-08 21:23 28.48118 -80.90225 14995 ft 366 kts 147°
2026-05-08 21:24 28.46058 -80.88466 15558 ft 370 kts 148°
2026-05-08 21:24 28.44006 -80.86713 16103 ft 374 kts 148°
2026-05-08 21:24 28.41907 -80.84923 16659 ft 377 kts 148°
2026-05-08 21:24 28.40512 -80.83733 17001 ft 380 kts 148°
2026-05-08 21:25 28.37675 -80.81315 17704 ft 385 kts 148°
2026-05-08 21:25 28.36220 -80.80075 18048 ft 388 kts 148°
2026-05-08 21:25 28.34052 -80.78229 18510 ft 391 kts 148°
2026-05-08 21:25 28.31889 -80.76388 18918 ft 395 kts 148°
2026-05-08 21:26 28.29681 -80.74509 19353 ft 398 kts 148°
2026-05-08 21:26 28.26704 -80.71979 19933 ft 403 kts 148°
2026-05-08 21:26 28.25177 -80.70681 20220 ft 405 kts 148°
2026-05-08 21:26 28.22941 -80.68783 20658 ft 408 kts 149°
2026-05-08 21:27 28.20513 -80.67181 21054 ft 401 kts 166°
2026-05-08 21:27 28.17846 -80.66181 21469 ft 403 kts 168°
2026-05-08 21:27 28.15203 -80.65211 21891 ft 406 kts 168°
2026-05-08 21:27 28.12500 -80.64240 22330 ft 408 kts 169°
2026-05-08 21:28 28.09857 -80.62924 22755 ft 422 kts 153°
2026-05-08 21:28 28.07397 -80.61032 23263 ft 425 kts 152°
2026-05-08 21:28 28.04939 -80.59157 23560 ft 432 kts 152°
2026-05-08 21:28 28.02484 -80.57261 23966 ft 433 kts 152°
2026-05-08 21:29 27.99979 -80.55318 24337 ft 436 kts 152°
2026-05-08 21:29 27.97467 -80.53366 24714 ft 438 kts 152°
2026-05-08 21:29 27.94938 -80.51401 25099 ft 440 kts 152°
2026-05-08 21:29 27.92398 -80.49429 25461 ft 443 kts 152°
2026-05-08 21:30 27.89886 -80.47479 25812 ft 445 kts 152°
2026-05-08 21:30 27.87311 -80.45481 26174 ft 448 kts 152°
2026-05-08 21:30 27.84729 -80.43479 26521 ft 450 kts 152°
2026-05-08 21:30 27.82163 -80.41491 26856 ft 453 kts 152°
2026-05-08 21:31 27.79548 -80.39466 27187 ft 455 kts 152°
2026-05-08 21:31 27.76918 -80.37431 27514 ft 457 kts 152°
2026-05-08 21:31 27.74312 -80.35415 27833 ft 460 kts 152°
2026-05-08 21:31 27.71665 -80.33369 28148 ft 462 kts 152°
2026-05-08 21:32 27.68997 -80.31308 28458 ft 464 kts 152°
2026-05-08 21:32 27.66333 -80.29252 28776 ft 466 kts 152°
2026-05-08 21:32 27.63661 -80.27190 29083 ft 469 kts 152°
2026-05-08 21:32 27.60957 -80.25104 29383 ft 471 kts 152°
2026-05-08 21:33 27.58225 -80.22999 29678 ft 473 kts 152°
2026-05-08 21:33 27.55495 -80.20896 29973 ft 475 kts 152°
2026-05-08 21:33 27.52787 -80.18812 30212 ft 478 kts 152°
2026-05-08 21:33 27.50024 -80.16686 30447 ft 480 kts 152°
2026-05-08 21:34 27.47248 -80.14552 30690 ft 482 kts 152°
2026-05-08 21:34 27.44503 -80.12443 30923 ft 484 kts 152°
2026-05-08 21:34 27.41704 -80.10294 31148 ft 486 kts 152°
2026-05-08 21:34 27.38933 -80.08069 31373 ft 492 kts 146°
2026-05-08 21:35 27.36319 -80.05551 31638 ft 494 kts 144°
2026-05-08 21:35 27.33732 -80.03037 31835 ft 497 kts 144°
2026-05-08 21:35 27.31100 -80.00471 32063 ft 499 kts 144°
2026-05-08 21:35 27.28461 -79.97898 32298 ft 501 kts 144°
2026-05-08 21:36 27.25842 -79.95346 32522 ft 503 kts 144°
2026-05-08 21:36 27.23189 -79.92761 32737 ft 505 kts 144°
2026-05-08 21:36 27.20518 -79.90161 32952 ft 507 kts 144°
2026-05-08 21:36 27.17869 -79.87585 33220 ft 507 kts 144°
2026-05-08 21:37 27.15198 -79.84989 33525 ft 507 kts 144°
2026-05-08 21:37 27.12520 -79.82387 33824 ft 506 kts 144°
2026-05-08 21:37 27.09848 -79.79793 34102 ft 506 kts 144°
2026-05-08 21:37 27.07217 -79.77240 34349 ft 506 kts 144°
2026-05-08 21:38 27.04541 -79.74646 34594 ft 506 kts 144°
2026-05-08 21:38 27.01876 -79.72064 34840 ft 506 kts 144°
2026-05-08 21:38 26.99234 -79.69506 35083 ft 505 kts 144°
2026-05-08 21:38 26.96574 -79.66933 35345 ft 504 kts 144°
2026-05-08 21:39 26.93901 -79.64348 35584 ft 504 kts 144°
2026-05-08 21:39 26.91266 -79.61802 35807 ft 504 kts 144°
2026-05-08 21:39 26.88607 -79.59234 36033 ft 504 kts 144°
2026-05-08 21:39 26.85946 -79.56665 36264 ft 503 kts 144°
2026-05-08 21:40 26.83292 -79.54105 36484 ft 503 kts 144°
2026-05-08 21:40 26.80666 -79.51575 36692 ft 502 kts 144°
2026-05-08 21:40 26.78024 -79.49029 36890 ft 502 kts 144°
2026-05-08 21:41 26.72713 -79.43918 36993 ft 500 kts 144°
2026-05-08 21:41 26.70102 -79.41408 37001 ft 500 kts 144°
2026-05-08 21:41 26.64823 -79.36336 36998 ft 499 kts 144°
2026-05-08 21:42 26.59568 -79.31295 36998 ft 499 kts 144°
2026-05-08 21:42 26.54283 -79.26232 36998 ft 498 kts 144°
2026-05-08 21:43 26.49025 -79.21201 36995 ft 498 kts 144°
2026-05-08 21:43 26.43773 -79.16181 36995 ft 498 kts 144°
2026-05-08 21:44 26.38508 -79.11155 36993 ft 497 kts 144°
2026-05-08 21:44 26.33259 -79.06151 36993 ft 497 kts 144°
2026-05-08 21:45 26.27983 -79.01128 36989 ft 497 kts 143°
2026-05-08 21:45 26.22740 -78.96142 36991 ft 496 kts 143°
2026-05-08 21:46 26.17472 -78.91138 36993 ft 496 kts 143°
2026-05-08 21:46 26.12233 -78.86168 36994 ft 495 kts 143°
2026-05-08 21:47 26.07003 -78.81213 36993 ft 495 kts 143°
2026-05-08 21:47 26.01748 -78.76238 36991 ft 495 kts 143°
2026-05-08 21:48 25.96542 -78.71316 36989 ft 494 kts 143°
2026-05-08 21:48 25.91591 -78.66000 37001 ft 498 kts 130°
2026-05-08 21:49 25.87234 -78.59984 37002 ft 499 kts 132°
2026-05-08 21:49 25.82896 -78.54011 36992 ft 499 kts 131°
2026-05-08 21:50 25.78556 -78.48037 36993 ft 498 kts 131°
2026-05-08 21:50 25.74178 -78.42018 36992 ft 498 kts 131°
2026-05-08 21:51 25.69839 -78.36062 36993 ft 498 kts 131°
2026-05-08 21:51 25.65477 -78.30081 36992 ft 498 kts 131°
2026-05-08 21:52 25.61122 -78.24116 36995 ft 498 kts 131°
2026-05-08 21:52 25.56770 -78.18165 36992 ft 498 kts 131°
2026-05-08 21:53 25.52398 -78.12193 36994 ft 498 kts 131°
2026-05-08 21:53 25.48043 -78.06252 36994 ft 498 kts 131°
2026-05-08 21:54 25.43666 -78.00288 36996 ft 497 kts 131°
2026-05-08 21:54 25.39311 -77.94363 36994 ft 497 kts 131°
2026-05-08 21:55 25.35666 -77.89409 36994 ft 497 kts 131°
2026-05-08 21:56 25.28414 -77.79569 37001 ft 496 kts 131°
2026-05-08 21:56 25.24041 -77.73645 37001 ft 496 kts 131°
2026-05-08 21:57 25.19687 -77.67755 37007 ft 496 kts 131°
2026-05-08 21:57 25.15313 -77.61844 37018 ft 495 kts 131°
2026-05-08 21:58 25.10975 -77.55990 37028 ft 495 kts 131°
2026-05-08 21:58 25.06603 -77.50094 37010 ft 494 kts 131°
2026-05-08 21:59 25.02227 -77.44302 37020 ft 493 kts 134°
2026-05-08 21:59 24.97636 -77.38641 37025 ft 493 kts 133°
2026-05-08 22:00 24.93109 -77.33013 37007 ft 493 kts 133°
2026-05-08 22:00 24.88545 -77.27344 37008 ft 493 kts 133°
2026-05-08 22:01 24.83994 -77.21698 36995 ft 492 kts 134°
2026-05-08 22:01 24.79453 -77.16071 36995 ft 492 kts 133°
2026-05-08 22:02 24.74922 -77.10462 37007 ft 492 kts 133°
2026-05-08 22:02 24.70354 -77.04815 37008 ft 491 kts 133°
2026-05-08 22:03 24.65822 -76.99218 37000 ft 491 kts 133°
2026-05-08 22:03 24.61289 -76.93628 37003 ft 490 kts 133°
2026-05-08 22:04 24.56740 -76.88024 37005 ft 490 kts 133°
2026-05-08 22:04 24.52221 -76.82463 37003 ft 489 kts 133°
2026-05-08 22:05 24.47670 -76.76871 37003 ft 489 kts 133°
2026-05-08 22:05 24.43147 -76.71318 37005 ft 489 kts 133°
2026-05-08 22:06 24.38621 -76.65768 37005 ft 488 kts 133°
2026-05-08 22:06 24.34067 -76.60191 37002 ft 488 kts 133°
2026-05-08 22:07 24.29553 -76.54668 37004 ft 487 kts 133°
2026-05-08 22:07 24.25039 -76.49154 37007 ft 487 kts 133°
2026-05-08 22:08 24.20503 -76.43618 37005 ft 486 kts 133°
2026-05-08 22:08 24.15999 -76.38128 37008 ft 486 kts 133°
2026-05-08 22:09 24.11497 -76.32644 37005 ft 486 kts 133°
2026-05-08 22:09 24.06981 -76.27153 37006 ft 485 kts 133°
2026-05-08 22:10 24.03204 -76.22564 37006 ft 485 kts 133°
2026-05-08 22:10 23.97931 -76.16164 37007 ft 485 kts 133°
2026-05-08 22:11 23.93433 -76.10712 37006 ft 484 kts 133°
2026-05-08 22:11 23.89667 -76.06151 37004 ft 484 kts 132°
2026-05-08 22:12 23.85168 -76.00709 37007 ft 484 kts 133°
2026-05-08 22:12 23.80639 -75.95237 37009 ft 483 kts 133°
2026-05-08 22:13 23.76144 -75.89812 37013 ft 483 kts 132°
2026-05-08 22:13 23.71623 -75.84362 37006 ft 483 kts 132°
2026-05-08 22:14 23.67122 -75.78941 37006 ft 482 kts 132°
2026-05-08 22:14 23.62631 -75.73539 37007 ft 482 kts 132°
2026-05-08 22:15 23.58106 -75.68101 37006 ft 482 kts 132°
2026-05-08 22:15 23.53616 -75.62712 37007 ft 481 kts 132°
2026-05-08 22:16 23.49130 -75.57333 37006 ft 481 kts 132°
2026-05-08 22:16 23.44624 -75.51937 37005 ft 481 kts 132°
2026-05-08 22:17 23.40109 -75.46536 37007 ft 481 kts 132°
2026-05-08 22:17 23.35622 -75.41173 37005 ft 480 kts 132°
2026-05-08 22:18 23.31131 -75.35813 37009 ft 480 kts 132°
2026-05-08 22:18 23.26617 -75.30429 37010 ft 480 kts 132°
2026-05-08 22:19 23.22129 -75.25081 37009 ft 480 kts 132°
2026-05-08 22:19 23.17621 -75.19716 37010 ft 480 kts 132°
2026-05-08 22:20 23.13141 -75.14389 37012 ft 479 kts 132°
2026-05-08 22:20 23.08679 -75.08959 37003 ft 478 kts 126°
2026-05-08 22:21 23.04833 -75.03072 37009 ft 478 kts 124°
2026-05-08 22:21 23.01014 -74.97193 37012 ft 478 kts 124°
2026-05-08 22:22 22.97162 -74.91262 37007 ft 478 kts 124°
2026-05-08 22:22 22.93346 -74.85390 37009 ft 478 kts 124°
2026-05-08 22:23 22.89520 -74.79512 37009 ft 478 kts 124°
2026-05-08 22:23 22.85697 -74.73645 37010 ft 478 kts 124°
2026-05-08 22:24 22.81846 -74.67740 37007 ft 478 kts 124°
2026-05-08 22:24 22.78021 -74.61882 37010 ft 478 kts 124°
2026-05-08 22:25 22.74161 -74.55977 37008 ft 478 kts 124°
2026-05-08 22:25 22.72048 -74.52748 37009 ft 478 kts 124°
2026-05-08 22:46 22.68850 -74.47862 37008 ft 477 kts 124°
2026-05-08 22:46 22.61188 -74.36098 37007 ft 477 kts 124°
2026-05-08 22:47 22.53464 -74.24481 37007 ft 477 kts 124°
2026-05-08 22:47 22.45744 -74.12745 37009 ft 477 kts 124°
2026-05-08 22:48 22.38083 -74.01074 37008 ft 477 kts 124°
2026-05-08 22:48 22.30316 -73.89404 37009 ft 477 kts 124°
2026-05-08 22:49 22.22630 -73.77780 37010 ft 477 kts 124°
2026-05-08 22:49 22.11031 -73.60307 37007 ft 477 kts 125°
2026-05-08 22:50 22.03257 -73.48714 37010 ft 478 kts 123°
2026-05-08 22:50 21.95523 -73.37078 37009 ft 477 kts 121°
2026-05-08 22:51 21.87768 -73.25505 37005 ft 477 kts 123°
2026-05-08 22:51 21.80008 -73.13948 37004 ft 478 kts 124°
2026-05-08 22:52 21.72205 -73.02379 37003 ft 477 kts 123°
2026-05-08 22:52 21.64393 -72.90837 37005 ft 478 kts 123°
2026-05-08 22:53 21.56605 -72.79168 37009 ft 477 kts 122°
2026-05-08 22:53 21.48818 -72.67610 37006 ft 478 kts 123°
2026-05-08 22:54 21.42428 -72.58302 37002 ft 478 kts 123°
2026-05-08 22:54 21.34562 -72.46692 37001 ft 478 kts 123°
2026-05-08 22:55 21.26702 -72.35176 37004 ft 478 kts 123°
2026-05-08 22:55 21.18898 -72.23718 36996 ft 478 kts 124°
2026-05-08 22:56 21.10983 -72.12196 37005 ft 478 kts 123°
2026-05-08 22:56 21.03167 -72.00724 37002 ft 478 kts 124°
2026-05-08 22:57 20.95327 -71.89292 37003 ft 478 kts 123°
2026-05-08 22:57 20.87410 -71.77834 37002 ft 478 kts 123°
2026-05-08 22:58 20.79523 -71.66359 37002 ft 479 kts 123°
2026-05-08 22:58 20.72948 -71.56772 36998 ft 479 kts 123°
2026-05-08 22:59 20.65015 -71.45418 36997 ft 479 kts 123°
2026-05-08 22:59 20.60019 -71.38112 36995 ft 479 kts 123°
2026-05-08 23:00 20.56051 -71.32401 36994 ft 479 kts 123°
2026-05-08 23:00 20.52097 -71.26703 36994 ft 479 kts 123°
2026-05-08 23:01 20.48114 -71.20969 36996 ft 480 kts 123°
2026-05-08 23:01 20.44145 -71.15262 37000 ft 480 kts 123°
2026-05-08 23:02 20.40096 -71.09585 36998 ft 480 kts 124°
2026-05-08 23:02 20.36025 -71.03963 36997 ft 480 kts 124°
2026-05-08 23:03 20.31944 -70.98322 37000 ft 480 kts 124°
2026-05-08 23:03 20.27874 -70.92700 37004 ft 480 kts 124°
2026-05-08 23:04 20.23795 -70.87071 36995 ft 480 kts 124°
2026-05-08 23:04 20.19735 -70.81474 36995 ft 480 kts 124°
2026-05-08 23:05 20.15635 -70.75827 36996 ft 480 kts 124°
2026-05-08 23:05 20.11564 -70.70226 37000 ft 480 kts 124°
2026-05-08 23:06 20.07475 -70.64605 37005 ft 480 kts 124°
2026-05-08 23:06 20.03406 -70.59017 36993 ft 479 kts 124°
2026-05-08 23:07 19.99303 -70.53387 37005 ft 479 kts 124°
2026-05-08 23:07 19.95224 -70.47797 36995 ft 479 kts 124°
2026-05-08 23:08 19.91151 -70.42218 36995 ft 479 kts 124°
2026-05-08 23:08 19.87041 -70.36595 36750 ft 480 kts 124°
2026-05-08 23:09 19.84986 -70.33787 36484 ft 478 kts 124°
2026-05-08 23:09 19.82970 -70.31032 36237 ft 476 kts 124°
2026-05-08 23:09 19.80946 -70.28267 35985 ft 473 kts 124°
2026-05-08 23:09 19.78928 -70.25512 35736 ft 468 kts 124°
2026-05-08 23:10 19.76939 -70.22797 35491 ft 459 kts 124°
2026-05-08 23:10 19.75005 -70.20160 35051 ft 455 kts 124°
2026-05-08 23:10 19.73045 -70.17487 34394 ft 457 kts 124°
2026-05-08 23:10 19.71110 -70.14850 33825 ft 456 kts 124°
2026-05-08 23:11 19.69151 -70.12182 33300 ft 453 kts 124°
2026-05-08 23:11 19.67224 -70.09559 32822 ft 449 kts 124°
2026-05-08 23:11 19.65308 -70.06951 32347 ft 445 kts 124°
2026-05-08 23:11 19.63429 -70.04395 31866 ft 441 kts 124°
2026-05-08 23:12 19.61544 -70.01832 31385 ft 438 kts 124°
2026-05-08 23:12 19.59672 -69.99287 30911 ft 435 kts 124°
2026-05-08 23:12 19.57817 -69.96766 30433 ft 432 kts 124°
2026-05-08 23:12 19.55985 -69.94280 29943 ft 430 kts 124°
2026-05-08 23:13 19.54150 -69.91787 29397 ft 427 kts 124°
2026-05-08 23:13 19.52317 -69.89300 28912 ft 423 kts 125°
2026-05-08 23:13 19.50531 -69.86878 28461 ft 419 kts 125°
2026-05-08 23:13 19.48728 -69.84433 27993 ft 415 kts 125°
2026-05-08 23:14 19.46975 -69.82057 27538 ft 412 kts 125°
2026-05-08 23:14 19.45213 -69.79669 27083 ft 408 kts 125°
2026-05-08 23:14 19.43470 -69.77308 26631 ft 405 kts 125°
2026-05-08 23:14 19.41734 -69.74959 26177 ft 403 kts 125°
2026-05-08 23:15 19.40026 -69.72647 25740 ft 400 kts 126°
2026-05-08 23:15 19.38313 -69.70331 25286 ft 397 kts 126°
2026-05-08 23:15 19.36612 -69.68030 24859 ft 395 kts 126°
2026-05-08 23:15 19.34916 -69.65738 24421 ft 393 kts 126°
2026-05-08 23:16 19.33234 -69.63464 23986 ft 391 kts 126°
2026-05-08 23:16 19.31557 -69.61200 23551 ft 389 kts 126°
2026-05-08 23:16 19.29908 -69.58973 23045 ft 387 kts 126°
2026-05-08 23:16 19.28246 -69.56730 22597 ft 384 kts 126°
2026-05-08 23:17 19.26599 -69.54508 22166 ft 381 kts 126°
2026-05-08 23:17 19.24969 -69.52309 21757 ft 377 kts 126°
2026-05-08 23:17 19.23370 -69.50153 21333 ft 374 kts 126°
2026-05-08 23:17 19.21767 -69.47992 20917 ft 371 kts 126°
2026-05-08 23:18 19.20170 -69.45841 20505 ft 368 kts 126°
2026-05-08 23:18 19.18591 -69.43714 20101 ft 366 kts 126°
2026-05-08 23:18 19.17023 -69.41603 19687 ft 363 kts 126°
2026-05-08 23:18 19.15480 -69.39526 19288 ft 361 kts 126°
2026-05-08 23:19 19.13929 -69.37440 18880 ft 359 kts 126°
2026-05-08 23:19 19.12380 -69.35356 18476 ft 357 kts 126°
2026-05-08 23:19 19.10843 -69.33291 18029 ft 356 kts 126°
2026-05-08 23:19 19.09312 -69.31233 17584 ft 355 kts 126°
2026-05-08 23:20 19.07799 -69.29200 17178 ft 352 kts 126°
2026-05-08 23:20 19.06297 -69.27182 16778 ft 349 kts 126°
2026-05-08 23:20 19.04802 -69.25175 16376 ft 346 kts 126°
2026-05-08 23:20 19.03312 -69.23175 15970 ft 343 kts 126°
2026-05-08 23:21 19.01851 -69.21214 15582 ft 341 kts 126°
2026-05-08 23:21 19.00385 -69.19248 15175 ft 339 kts 126°
2026-05-08 23:21 18.98936 -69.17305 14778 ft 337 kts 126°
2026-05-08 23:21 18.97484 -69.15358 14376 ft 335 kts 126°
2026-05-08 23:22 18.96039 -69.13421 13988 ft 333 kts 126°
2026-05-08 23:22 18.94618 -69.11518 13567 ft 332 kts 127°
2026-05-08 23:22 18.93182 -69.09593 13134 ft 330 kts 127°
2026-05-08 23:22 18.91776 -69.07712 12735 ft 328 kts 126°
2026-05-08 23:23 18.90360 -69.05816 12340 ft 325 kts 126°
2026-05-08 23:23 18.88961 -69.03944 11947 ft 323 kts 127°
2026-05-08 23:23 18.87568 -69.02080 11563 ft 321 kts 127°
2026-05-08 23:23 18.86203 -69.00255 11180 ft 319 kts 126°
2026-05-08 23:24 18.84824 -68.98412 10798 ft 317 kts 127°
2026-05-08 23:24 18.83463 -68.96592 10414 ft 315 kts 126°
2026-05-08 23:24 18.82129 -68.94810 10199 ft 307 kts 127°
2026-05-08 23:24 18.80820 -68.93061 9935 ft 301 kts 126°
2026-05-08 23:25 18.79521 -68.91326 9520 ft 300 kts 126°
2026-05-08 23:25 18.78240 -68.89616 9130 ft 299 kts 126°
2026-05-08 23:25 18.76949 -68.87893 8757 ft 297 kts 127°
2026-05-08 23:25 18.75665 -68.86181 8398 ft 295 kts 127°
2026-05-08 23:26 18.74407 -68.84503 8030 ft 294 kts 127°
2026-05-08 23:26 18.73135 -68.82806 7663 ft 293 kts 127°
2026-05-08 23:26 18.71874 -68.81125 7296 ft 291 kts 127°
2026-05-08 23:26 18.70623 -68.79457 6944 ft 289 kts 127°
2026-05-08 23:27 18.69379 -68.77800 6598 ft 287 kts 127°
2026-05-08 23:27 18.68155 -68.76169 6230 ft 287 kts 127°
2026-05-08 23:27 18.66913 -68.74513 5849 ft 285 kts 127°
2026-05-08 23:27 18.65676 -68.72866 5489 ft 283 kts 127°
2026-05-08 23:28 18.64463 -68.71252 5141 ft 281 kts 127°
2026-05-08 23:28 18.63266 -68.69657 4797 ft 279 kts 127°
2026-05-08 23:28 18.62058 -68.68049 4440 ft 277 kts 127°
2026-05-08 23:28 18.60865 -68.66463 4109 ft 274 kts 127°
2026-05-08 23:29 18.59700 -68.64913 3967 ft 262 kts 127°
2026-05-08 23:29 18.58608 -68.63461 3828 ft 251 kts 127°
2026-05-08 23:29 18.57547 -68.62052 3686 ft 240 kts 127°
2026-05-08 23:29 18.56530 -68.60700 3537 ft 229 kts 127°
2026-05-08 23:30 18.55559 -68.59409 3387 ft 219 kts 127°
2026-05-08 23:30 18.54632 -68.58177 3233 ft 210 kts 127°
2026-05-08 23:30 18.53731 -68.56980 3047 ft 210 kts 127°
2026-05-08 23:30 18.52872 -68.55744 2902 ft 214 kts 114°
2026-05-08 23:31 18.52677 -68.54223 2829 ft 212 kts 79°
2026-05-08 23:31 18.53075 -68.52740 2663 ft 206 kts 74°
2026-05-08 23:31 18.53143 -68.52491 2621 ft 206 kts 74°
2026-05-08 23:31 18.53531 -68.51075 2388 ft 202 kts 73°
2026-05-08 23:32 18.53914 -68.49688 2152 ft 195 kts 74°
2026-05-08 23:32 18.54292 -68.48330 1926 ft 185 kts 74°
2026-05-08 23:32 18.54632 -68.47110 1784 ft 160 kts 73°
2026-05-08 23:32 18.54926 -68.46030 1645 ft 156 kts 75°
2026-05-08 23:33 18.55213 -68.44967 1412 ft 144 kts 74°
2026-05-08 23:33 18.55488 -68.43964 1165 ft 142 kts 75°
2026-05-08 23:33 18.55754 -68.42985 996 ft 139 kts 74°
2026-05-08 23:33 18.56021 -68.42004 841 ft 140 kts 73°
2026-05-08 23:34 18.56296 -68.40996 648 ft 144 kts 72°
2026-05-08 23:34 18.56343 -68.40822 606 ft 145 kts 73°
2026-05-08 23:34 18.56370 -68.40719 579 ft 146 kts 73°
2026-05-08 23:34 18.56450 -68.40405 480 ft 149 kts 75°
2026-05-08 23:35 18.56492 -68.40239 421 ft 150 kts 75°
2026-05-08 23:35 18.56781 -68.39183 290 ft 149 kts 72°
2026-05-08 23:35 18.57065 -68.38147 88 ft 143 kts 73°
2026-05-08 23:35 18.57328 -68.37216 50 ft 118 kts 74°
2026-05-08 23:36 18.57513 -68.36545 48 ft 75 kts 73°
2026-05-08 23:36 18.57594 -68.36222 51 ft 28 kts 81°
2026-05-08 23:36 18.57589 -68.36021 53 ft 23 kts 105°
2026-05-08 23:36 18.57557 -68.35898 53 ft 17 kts 113°
2026-05-08 23:37 18.57464 -68.35841 53 ft 17 kts 166°
2026-05-08 23:37 18.57338 -68.35831 49 ft 19 kts 177°
2026-05-08 23:37 18.57218 -68.35823 53 ft 15 kts 176°
2026-05-08 23:37 18.57108 -68.35817 50 ft 16 kts 177°
2026-05-08 23:38 18.57067 -68.35815 48 ft 16 kts 177°
2026-05-08 23:38 18.57015 -68.35814 53 ft 15 kts 188°
2026-05-08 23:38 18.56969 -68.35880 52 ft 11 kts 265°
2026-05-08 23:38 18.56963 -68.35954 49 ft 9 kts 264°
2026-05-08 23:39 18.56957 -68.36013 53 ft 7 kts 264°
2026-05-08 23:39 18.56953 -68.36061 53 ft 8 kts 265°
2026-05-08 23:39 18.56947 -68.36145 53 ft 15 kts 266°
2026-05-08 23:39 18.56935 -68.36284 51 ft 22 kts 263°
2026-05-08 23:40 18.56919 -68.36454 53 ft 24 kts 265°
2026-05-08 23:40 18.56909 -68.36576 53 ft 13 kts 263°
2026-05-08 23:40 18.56900 -68.36669 53 ft 13 kts 264°
2026-05-08 23:40 18.56879 -68.36750 53 ft 7 kts 226°
2026-05-08 23:41 18.56872 -68.36757 50 ft 0 kts 212°
2026-05-08 23:41 18.56861 -68.36759 50 ft 3 kts 184°
2026-05-08 23:41 18.56819 -68.36756 54 ft 9 kts 175°
2026-05-08 23:41 18.56742 -68.36750 54 ft 13 kts 178°
2026-05-08 23:42 18.56630 -68.36755 52 ft 19 kts 180°
2026-05-08 23:42 18.56522 -68.36789 53 ft 15 kts 249°
2026-05-08 23:42 18.56511 -68.36894 53 ft 13 kts 266°
2026-05-08 23:42 18.56501 -68.36984 50 ft 11 kts 248°
2026-05-08 23:43 18.56453 -68.37013 53 ft 7 kts 180°
2026-05-08 23:43 18.56416 -68.37014 50 ft 4 kts 178°
2026-05-08 23:43 18.56384 -68.37012 50 ft 6 kts 187°
2026-05-08 23:43 18.56359 -68.37037 53 ft 9 kts 252°
2026-05-08 23:44 18.56353 -68.37084 53 ft 6 kts 265°
2026-05-08 23:44 18.56353 -68.37091 53 ft 0 kts 265°